sat.trackr.live / text

‹ back to catalog

STARLINK-4428

NORAD 53672 · 2022-105AA

PAYLOAD ACTIVE UNKNOWN

§ Identity

Operator
Country
US
Launch date
2022-08-31
Launch site
AFWTR
Launch vehicle
Mass (kg)
RCS (m²)

Purposes: comms

External: N2YO · Heavens-Above · Gunter

§ Orbital elements

Epoch: 2026-05-25T03:12:55.342368Z

Period
95.64 min
Inclination
97.4502°
Eccentricity
0.0002436
Mean motion
15.05655137 rev/d
Perigee alt
547.8 km
Apogee alt
551.2 km
Semi-major
6,927.6 km
B*
-4.2005e-5
RAAN
25.1002°
Arg perigee
81.3253°
Mean anomaly
278.8250°
Rev number
20,473

§ Raw data

STARLINK-44281 53672U 22105AA  26145.13397387 -.00000665  00000+0 -42005-4 0  99952 53672  97.4502  25.1002 0002436  81.3253 278.8250 15.05655137204735

JSON: /api/v1/satellites/53672 · /tle

For live sub-satellite position, see the globe view (requires WebGL).

§ Visibility from observer

Set your observer location to see the next 7 days of passes ≥ 10°. The values pass through the URL so the page stays shareable.

No JS? Fill the form by hand. The geolocation button needs JavaScript.